TimeCST,TemperatureF,Dew PointF,Humidity,Sea Level PressureIn,VisibilityMPH,Wind Direction,Wind SpeedMPH,Gust SpeedMPH,PrecipitationIn,Events,Conditions,WindDirDegrees,DateUTC
12:15 AM,-0.4,-7.6,72,30.22,10.0,North,3.5,-,N/A,,Clear,350,2014-01-08 06:15:00
12:35 AM,-0.4,-7.6,72,30.22,10.0,NNW,4.6,-,N/A,,Clear,330,2014-01-08 06:35:00
12:55 AM,-2.2,-9.4,71,30.22,10.0,NNW,4.6,-,N/A,,Clear,330,2014-01-08 06:55:00
1:15 AM,-2.2,-9.4,71,30.22,10.0,NNW,3.5,-,N/A,,Clear,330,2014-01-08 07:15:00
1:35 AM,-2.2,-7.6,78,30.22,10.0,NW,4.6,-,N/A,,Clear,310,2014-01-08 07:35:00
1:55 AM,-2.2,-9.4,71,30.22,10.0,WNW,4.6,-,N/A,,Clear,300,2014-01-08 07:55:00
2:15 AM,-2.2,-7.6,78,30.24,10.0,NW,5.8,-,N/A,,Clear,310,2014-01-08 08:15:00
2:35 AM,-2.2,-9.4,71,30.25,10.0,NW,4.6,-,N/A,,Clear,320,2014-01-08 08:35:00
2:55 AM,-2.2,-11.2,66,30.26,10.0,NW,3.5,-,N/A,,Clear,320,2014-01-08 08:55:00
3:15 AM,-2.2,-9.4,71,30.26,10.0,NW,3.5,-,N/A,,Clear,320,2014-01-08 09:15:00
3:35 AM,-0.4,-9.4,66,30.27,10.0,NW,4.6,-,N/A,,Clear,320,2014-01-08 09:35:00
3:55 AM,-2.2,-9.4,71,30.26,10.0,NW,4.6,-,N/A,,Partly Cloudy,320,2014-01-08 09:55:00
4:15 AM,-2.2,-9.4,71,30.26,10.0,NNW,4.6,-,N/A,,Mostly Cloudy,330,2014-01-08 10:15:00
4:35 AM,-2.2,-11.2,66,30.27,10.0,NW,3.5,-,N/A,,Partly Cloudy,310,2014-01-08 10:35:00
4:55 AM,-2.2,-9.4,71,30.27,10.0,NW,3.5,-,N/A,,Mostly Cloudy,320,2014-01-08 10:55:00
5:15 AM,-2.2,-9.4,71,30.26,10.0,Calm,Calm,-,N/A,,Overcast,0,2014-01-08 11:15:00
5:35 AM,-0.4,-7.6,72,30.27,10.0,Calm,Calm,-,N/A,,Overcast,0,2014-01-08 11:35:00
5:55 AM,-0.4,-9.4,66,30.28,10.0,Calm,Calm,-,N/A,,Overcast,0,2014-01-08 11:55:00
6:15 AM,-0.4,-9.4,66,30.28,10.0,Calm,Calm,-,N/A,,Mostly Cloudy,0,2014-01-08 12:15:00
6:35 AM,-0.4,-9.4,66,30.28,10.0,Calm,Calm,-,N/A,,Partly Cloudy,0,2014-01-08 12:35:00
6:55 AM,-0.4,-9.4,66,30.29,10.0,Calm,Calm,-,N/A,,Clear,0,2014-01-08 12:55:00
7:15 AM,-2.2,-9.4,71,30.29,10.0,Calm,Calm,-,N/A,,Clear,0,2014-01-08 13:15:00
7:35 AM,-2.2,-11.2,66,30.30,10.0,Calm,Calm,-,N/A,,Clear,0,2014-01-08 13:35:00
7:55 AM,-4.0,-11.2,71,30.31,10.0,Calm,Calm,-,N/A,,Clear,0,2014-01-08 13:55:00
8:15 AM,-5.8,-9.4,84,30.32,10.0,Calm,Calm,-,N/A,,Clear,0,2014-01-08 14:15:00
8:35 AM,-5.8,-11.2,77,30.32,10.0,Calm,Calm,-,N/A,,Clear,0,2014-01-08 14:35:00
8:55 AM,-4.0,-11.2,71,30.33,10.0,Calm,Calm,-,N/A,,Clear,0,2014-01-08 14:55:00
9:15 AM,-4.0,-9.4,78,30.35,10.0,Calm,Calm,-,N/A,,Clear,0,2014-01-08 15:15:00
9:35 AM,-0.4,-9.4,66,30.36,10.0,Calm,Calm,-,N/A,,Clear,0,2014-01-08 15:35:00
9:55 AM,1.4,-7.6,66,30.37,10.0,Calm,Calm,-,N/A,,Clear,0,2014-01-08 15:55:00
10:15 AM,1.4,-7.6,66,30.38,10.0,Calm,Calm,-,N/A,,Clear,0,2014-01-08 16:15:00
10:35 AM,1.4,-7.6,66,30.39,10.0,Calm,Calm,-,N/A,,Clear,0,2014-01-08 16:35:00
10:55 AM,5.0,-5.8,61,30.39,10.0,Calm,Calm,-,N/A,,Clear,0,2014-01-08 16:55:00
11:15 AM,5.0,-5.8,61,30.39,10.0,Calm,Calm,-,N/A,,Clear,0,2014-01-08 17:15:00
11:35 AM,5.0,-7.6,56,30.38,10.0,NE,3.5,-,N/A,,Clear,40,2014-01-08 17:35:00
11:55 AM,5.0,-5.8,61,30.38,10.0,Calm,Calm,-,N/A,,Clear,0,2014-01-08 17:55:00
12:15 PM,5.0,-5.8,61,30.37,10.0,Calm,Calm,-,N/A,,Clear,0,2014-01-08 18:15:00
12:35 PM,5.0,-7.6,56,30.37,10.0,Calm,Calm,-,N/A,,Clear,0,2014-01-08 18:35:00
12:55 PM,5.0,-5.8,61,30.36,10.0,Calm,Calm,-,N/A,,Partly Cloudy,0,2014-01-08 18:55:00
1:15 PM,6.8,-5.8,56,30.35,10.0,Calm,Calm,-,N/A,,Clear,0,2014-01-08 19:15:00
1:35 PM,5.0,-5.8,61,30.35,10.0,NE,3.5,-,N/A,,Clear,50,2014-01-08 19:35:00
1:55 PM,3.2,-5.8,66,30.35,10.0,ENE,3.5,-,N/A,,Clear,60,2014-01-08 19:55:00
2:15 PM,5.0,-5.8,61,30.35,10.0,NE,3.5,-,N/A,,Clear,50,2014-01-08 20:15:00
2:35 PM,5.0,-5.8,61,30.35,10.0,NE,3.5,-,N/A,,Clear,50,2014-01-08 20:35:00
2:55 PM,5.0,-5.8,61,30.36,10.0,Calm,Calm,-,N/A,,Clear,0,2014-01-08 20:55:00
3:15 PM,5.0,-4.0,66,30.36,10.0,Calm,Calm,-,N/A,,Clear,0,2014-01-08 21:15:00
3:35 PM,5.0,-4.0,66,30.36,10.0,East,3.5,-,N/A,,Clear,80,2014-01-08 21:35:00
3:55 PM,5.0,-4.0,66,30.35,10.0,ESE,4.6,-,N/A,,Clear,110,2014-01-08 21:55:00
4:15 PM,5.0,-4.0,66,30.35,10.0,East,5.8,-,N/A,,Clear,100,2014-01-08 22:15:00
4:35 PM,3.2,-4.0,72,30.35,10.0,ESE,6.9,-,N/A,,Clear,110,2014-01-08 22:35:00
4:55 PM,3.2,-5.8,66,30.35,10.0,East,5.8,-,N/A,,Clear,90,2014-01-08 22:55:00
5:15 PM,3.2,-5.8,66,30.35,10.0,East,4.6,-,N/A,,Clear,90,2014-01-08 23:15:00
5:35 PM,1.4,-5.8,72,30.35,10.0,East,3.5,-,N/A,,Clear,90,2014-01-08 23:35:00
5:55 PM,1.4,-5.8,72,30.35,10.0,East,5.8,-,N/A,,Scattered Clouds,90,2014-01-08 23:55:00
6:15 PM,1.4,-5.8,72,30.34,10.0,East,4.6,-,N/A,,Mostly Cloudy,100,2014-01-09 00:15:00
6:35 PM,3.2,-4.0,72,30.34,10.0,ESE,8.1,-,N/A,,Overcast,110,2014-01-09 00:35:00
6:55 PM,3.2,-4.0,72,30.34,10.0,ESE,10.4,-,N/A,,Overcast,110,2014-01-09 00:55:00
7:15 PM,3.2,-4.0,72,30.34,10.0,ESE,9.2,-,N/A,,Overcast,120,2014-01-09 01:15:00
7:35 PM,5.0,-2.2,72,30.34,10.0,SE,9.2,-,N/A,,Overcast,130,2014-01-09 01:35:00
7:55 PM,5.0,-2.2,72,30.34,10.0,SE,9.2,-,N/A,,Overcast,130,2014-01-09 01:55:00
8:15 PM,5.0,-2.2,72,30.34,10.0,SE,11.5,-,N/A,,Overcast,130,2014-01-09 02:15:00
8:35 PM,6.8,-2.2,67,30.34,10.0,SE,11.5,-,N/A,,Overcast,140,2014-01-09 02:35:00
8:55 PM,6.8,-2.2,67,30.33,10.0,SSE,9.2,-,N/A,,Overcast,160,2014-01-09 02:55:00
9:15 PM,6.8,-2.2,67,30.33,10.0,SSE,10.4,-,N/A,,Overcast,150,2014-01-09 03:15:00
9:35 PM,6.8,-0.4,72,30.33,10.0,SSE,10.4,-,N/A,,Overcast,160,2014-01-09 03:35:00
9:55 PM,6.8,-2.2,67,30.32,10.0,SSE,11.5,-,N/A,,Overcast,160,2014-01-09 03:55:00
10:15 PM,6.8,-2.2,67,30.31,10.0,SSE,12.7,16.1,N/A,,Overcast,160,2014-01-09 04:15:00
10:35 PM,6.8,-2.2,67,30.31,10.0,SSE,9.2,-,N/A,,Overcast,160,2014-01-09 04:35:00
10:55 PM,6.8,-2.2,67,30.31,10.0,SSE,15.0,19.6,N/A,,Overcast,160,2014-01-09 04:55:00
11:15 PM,6.8,-0.4,72,30.31,10.0,SSE,12.7,-,N/A,,Overcast,160,2014-01-09 05:15:00
11:35 PM,6.8,-0.4,72,30.30,10.0,South,11.5,-,N/A,,Overcast,170,2014-01-09 05:35:00
11:55 PM,6.8,-0.4,72,30.29,10.0,South,15.0,-,N/A,,Overcast,180,2014-01-09 05:55:00